• In Hungary
  • List of Countries
  • For 7 days
  • Water Temperature
  • Satellite Maps
  • Weather Map
  • News
  • Weather Widgets
  • user-avatar
    Login

    Hourly Weather Raslovo

    Today, 18 January, Thursday

    Time Temperature Precipitation Wind Pressure Humidity
    00:00 -12°C° 0.2 mm 6 mps 742 mmHg 79%
    01:00 -12°C° 0.2 mm 5 mps 741 mmHg 82%
    02:00 -12°C° 0 mm 5 mps 741 mmHg 84%
    03:00 -12°C° 0.1 mm 5 mps 741 mmHg 84%
    04:00 -12°C° 0.1 mm 5 mps 741 mmHg 84%
    05:00 -12°C° 0.1 mm 5 mps 741 mmHg 84%
    06:00 -11°C° 0 mm 5 mps 741 mmHg 84%
    07:00 -11°C° 0 mm 5 mps 741 mmHg 85%
    08:00 -9°C° 0 mm 4 mps 741 mmHg 85%
    09:00 -9°C° 0 mm 4 mps 741 mmHg 85%
    10:00 -8°C° 0 mm 4 mps 741 mmHg 84%
    11:00 -8°C° 0 mm 5 mps 741 mmHg 84%
    12:00 -7°C° 0 mm 5 mps 741 mmHg 85%
    13:00 -7°C° 0 mm 4 mps 741 mmHg 85%
    14:00 -7°C° 0 mm 4 mps 741 mmHg 85%
    15:00 -7°C° 0.1 mm 4 mps 741 mmHg 86%
    16:00 -7°C° 0.1 mm 4 mps 741 mmHg 88%
    17:00 -7°C° 0.1 mm 4 mps 741 mmHg 89%
    18:00 -7°C° 0.2 mm 4 mps 741 mmHg 90%
    19:00 -7°C° 0.2 mm 4 mps 742 mmHg 91%
    20:00 -5°C° 0.2 mm 3 mps 742 mmHg 92%
    21:00 -5°C° 0.3 mm 3 mps 742 mmHg 93%
    22:00 -5°C° 0.3 mm 3 mps 742 mmHg 94%
    23:00 -5°C° 0.3 mm 3 mps 742 mmHg 95%

    Tomorrow, 19 January, Friday

    Time Temperature Precipitation Wind Pressure Humidity
    00:00 -4°C° 0.5 mm 3 mps 742 mmHg 94%
    01:00 -4°C° 0.5 mm 3 mps 742 mmHg 94%
    02:00 -4°C° 0.5 mm 3 mps 742 mmHg 94%
    03:00 -4°C° 0.5 mm 3 mps 742 mmHg 94%
    04:00 -4°C° 0.5 mm 4 mps 742 mmHg 93%
    05:00 -4°C° 0.5 mm 4 mps 742 mmHg 93%
    06:00 -4°C° 0.3 mm 4 mps 743 mmHg 92%
    07:00 -5°C° 0.3 mm 4 mps 743 mmHg 91%
    08:00 -5°C° 0.3 mm 4 mps 743 mmHg 90%
    09:00 -5°C° 0.2 mm 4 mps 743 mmHg 88%
    10:00 -6°C° 0.2 mm 5 mps 743 mmHg 87%
    11:00 -6°C° 0.2 mm 5 mps 743 mmHg 85%
    12:00 -6°C° 0.1 mm 5 mps 743 mmHg 84%
    13:00 -7°C° 0.1 mm 5 mps 743 mmHg 84%
    14:00 -7°C° 0.1 mm 5 mps 743 mmHg 84%
    15:00 -8°C° 0.1 mm 5 mps 744 mmHg 84%
    16:00 -8°C° 0.1 mm 5 mps 744 mmHg 84%
    17:00 -8°C° 0.1 mm 5 mps 744 mmHg 85%
    18:00 -8°C° 0.1 mm 5 mps 744 mmHg 84%
    19:00 -8°C° 0.1 mm 5 mps 744 mmHg 83%
    20:00 -8°C° 0.1 mm 5 mps 744 mmHg 83%
    21:00 -8°C° 0.1 mm 5 mps 744 mmHg 84%
    22:00 -8°C° 0.1 mm 5 mps 744 mmHg 84%
    23:00 -9°C° 0.1 mm 6 mps 744 mmHg 85%

    Day after tomorrow, 20 January, Saturday

    Time Temperature Precipitation Wind Pressure Humidity
    00:00 -8°C° 0.2 mm 5 mps 744 mmHg 86%
    01:00 -8°C° 0.2 mm 5 mps 744 mmHg 87%
    02:00 -8°C° 0.2 mm 5 mps 744 mmHg 87%
    03:00 -10°C° 0.2 mm 5 mps 744 mmHg 88%
    04:00 -10°C° 0.2 mm 5 mps 743 mmHg 88%
    05:00 -10°C° 0.2 mm 5 mps 743 mmHg 88%
    06:00 -10°C° 0.1 mm 5 mps 743 mmHg 88%
    07:00 -10°C° 0.1 mm 5 mps 743 mmHg 88%
    08:00 -10°C° 0.1 mm 5 mps 743 mmHg 88%
    09:00 -10°C° 0.1 mm 5 mps 743 mmHg 88%
    10:00 -10°C° 0.1 mm 5 mps 743 mmHg 88%
    11:00 -10°C° 0.1 mm 5 mps 743 mmHg 88%
    12:00 -8°C° 0.1 mm 4 mps 742 mmHg 88%
    13:00 -8°C° 0.1 mm 4 mps 742 mmHg 88%
    14:00 -8°C° 0.1 mm 4 mps 742 mmHg 89%
    15:00 -8°C° 0.2 mm 4 mps 742 mmHg 90%
    16:00 -8°C° 0.2 mm 4 mps 742 mmHg 90%
    17:00 -8°C° 0.2 mm 4 mps 742 mmHg 91%
    18:00 -8°C° 0.1 mm 4 mps 742 mmHg 92%
    19:00 -8°C° 0.1 mm 4 mps 742 mmHg 92%
    20:00 -6°C° 0.1 mm 3 mps 742 mmHg 93%
    21:00 -6°C° 0.1 mm 3 mps 742 mmHg 93%
    22:00 -5°C° 0.1 mm 3 mps 742 mmHg 93%
    23:00 -5°C° 0.1 mm 3 mps 743 mmHg 93%

    21 January, Sunday

    Time Temperature Precipitation Wind Pressure Humidity
    00:00 -5°C° 0.1 mm 3 mps 743 mmHg 93%
    01:00 -5°C° 0.1 mm 3 mps 743 mmHg 93%
    02:00 -5°C° 0.1 mm 3 mps 743 mmHg 93%
    03:00 -6°C° 0 mm 3 mps 744 mmHg 94%
    04:00 -6°C° 0 mm 2 mps 744 mmHg 95%
    05:00 -7°C° 0 mm 2 mps 744 mmHg 96%
    06:00 -7°C° 0.1 mm 2 mps 744 mmHg 95%
    07:00 -6°C° 0.1 mm 2 mps 745 mmHg 95%
    08:00 -6°C° 0.1 mm 2 mps 745 mmHg 95%
    09:00 -6°C° 0 mm 2 mps 745 mmHg 95%
    10:00 -4°C° 0 mm 1 mps 746 mmHg 94%
    11:00 -3°C° 0 mm 1 mps 746 mmHg 93%
    12:00 -3°C° 0 mm 1 mps 746 mmHg 93%
    13:00 -3°C° 0 mm 1 mps 746 mmHg 93%
    14:00 -3°C° 0 mm 1 mps 746 mmHg 92%
    15:00 -3°C° 0 mm 1 mps 746 mmHg 94%
    16:00 -4°C° 0 mm 1 mps 746 mmHg 95%
    17:00 -4°C° 0 mm 1 mps 746 mmHg 96%
    18:00 -4°C° 0.1 mm 1 mps 746 mmHg 96%
    19:00 -6°C° 0.1 mm 1 mps 746 mmHg 96%
    20:00 -7°C° 0.1 mm 2 mps 746 mmHg 96%
    21:00 -7°C° 0.1 mm 2 mps 746 mmHg 96%
    22:00 -7°C° 0.1 mm 2 mps 746 mmHg 96%
    23:00 -7°C° 0.1 mm 2 mps 746 mmHg 95%

    22 January, Monday

    Time Temperature Precipitation Wind Pressure Humidity
    00:00 -7°C° 0.1 mm 2 mps 746 mmHg 95%
    01:00 -7°C° 0.1 mm 2 mps 746 mmHg 95%
    02:00 -8°C° 0.1 mm 3 mps 746 mmHg 95%
    03:00 -8°C° 0 mm 3 mps 746 mmHg 94%
    04:00 -8°C° 0 mm 3 mps 746 mmHg 94%
    05:00 -8°C° 0 mm 3 mps 747 mmHg 94%
    06:00 -8°C° 0 mm 3 mps 747 mmHg 94%
    07:00 -8°C° 0 mm 3 mps 747 mmHg 93%
    08:00 -9°C° 0 mm 3 mps 747 mmHg 93%
    09:00 -8°C° 0 mm 3 mps 748 mmHg 92%
    10:00 -7°C° 0 mm 3 mps 748 mmHg 90%
    11:00 -7°C° 0 mm 3 mps 748 mmHg 89%
    12:00 -7°C° 0 mm 3 mps 749 mmHg 88%
    13:00 -6°C° 0 mm 3 mps 749 mmHg 87%
    14:00 -6°C° 0 mm 3 mps 749 mmHg 85%
    15:00 -7°C° 0 mm 3 mps 750 mmHg 87%
    16:00 -8°C° 0 mm 3 mps 750 mmHg 89%
    17:00 -7°C° 0 mm 2 mps 750 mmHg 91%
    18:00 -8°C° 0 mm 2 mps 751 mmHg 92%
    19:00 -8°C° 0 mm 2 mps 751 mmHg 93%
    20:00 -9°C° 0 mm 2 mps 751 mmHg 94%
    21:00 -9°C° 0 mm 2 mps 752 mmHg 94%
    22:00 -10°C° 0 mm 2 mps 752 mmHg 95%
    23:00 -10°C° 0 mm 2 mps 752 mmHg 95%

    23 January, Tuesday

    Time Temperature Precipitation Wind Pressure Humidity
    00:00 -10°C° 0 mm 2 mps 753 mmHg 95%
    01:00 -12°C° 0 mm 2 mps 753 mmHg 95%
    02:00 -12°C° 0 mm 2 mps 753 mmHg 95%
    03:00 -13°C° 0 mm 2 mps 753 mmHg 95%
    04:00 -13°C° 0 mm 2 mps 754 mmHg 95%
    05:00 -13°C° 0 mm 2 mps 754 mmHg 95%
    06:00 -13°C° 0 mm 2 mps 754 mmHg 95%
    07:00 -13°C° 0 mm 2 mps 754 mmHg 95%
    08:00 -13°C° 0 mm 2 mps 754 mmHg 95%
    09:00 -13°C° 0 mm 2 mps 754 mmHg 93%
    10:00 -12°C° 0 mm 2 mps 754 mmHg 91%
    11:00 -10°C° 0 mm 2 mps 755 mmHg 89%
    12:00 -10°C° 0 mm 2 mps 754 mmHg 89%
    13:00 -9°C° 0 mm 2 mps 754 mmHg 88%
    14:00 -9°C° 0 mm 2 mps 754 mmHg 87%
    15:00 -9°C° 0 mm 2 mps 754 mmHg 88%
    16:00 -9°C° 0 mm 1 mps 754 mmHg 90%
    17:00 -9°C° 0 mm 1 mps 754 mmHg 92%
    18:00 -9°C° 0 mm 1 mps 754 mmHg 92%
    19:00 -10°C° 0 mm 1 mps 753 mmHg 93%
    20:00 -10°C° 0 mm 1 mps 753 mmHg 93%
    21:00 -10°C° 0 mm 1 mps 753 mmHg 94%
    22:00 -11°C° 0 mm 1 mps 753 mmHg 95%
    23:00 -11°C° 0 mm 1 mps 753 mmHg 95%
    Show more